| time (UTC) | temp C | wind direction | speed KPH | gust KPH | rain 1hr cm | rain 24hr cm | rain mn cm | humidity % | barometer mb |
| 20260504050002 | 3 | 148 | 6.4 | 22.5 | 0.05 | 1.60 | 0.05 | 94 | 974.7 |
| 20260504044558 | 3 | 133 | 9.7 | 25.7 | 0.03 | 1.57 | 0.05 | 94 | 975.8 |
| 20260504043104 | 3 | 88 | 12.9 | 32.2 | 0.05 | 1.57 | 0.05 | 94 | 976.2 |
| 20260504041553 | 3 | 157 | 6.4 | 33.8 | 0.03 | 1.55 | 0.03 | 94 | 977.3 |
| 20260504040050 | 3 | 80 | 17.7 | 33.8 | 0.03 | 1.55 | 0.03 | 94 | 977.6 |
| 20260504034555 | 3 | 117 | 14.5 | 33.8 | 0.03 | 1.55 | 0.03 | 94 | 978.7 |
| 20260504033055 | 3 | 169 | 14.5 | 30.6 | 0.00 | 1.55 | 0.00 | 95 | 979.4 |
| 20260504031558 | 4 | 140 | 11.3 | 27.4 | 0.00 | 1.55 | 0.00 | 95 | 980.1 |
| 20260504030040 | 4 | 154 | 8.0 | 27.4 | 0.03 | 1.55 | 0.00 | 95 | 980.6 |
| 20260504024542 | 4 | 145 | 8.0 | 17.7 | 0.03 | 1.55 | 1.55 | 95 | 981.1 |
| 20260504023032 | 4 | 143 | 8.0 | 17.7 | 0.05 | 1.55 | 1.55 | 95 | 981.6 |
| 20260504021529 | 3 | 194 | 3.2 | 16.1 | 0.05 | 1.55 | 1.55 | 95 | 982.1 |
| 20260504020025 | 3 | 10 | 1.6 | 4.8 | 0.10 | 1.52 | 1.52 | 95 | 982.9 |
| 20260504014523 | 2 | 11 | 1.6 | 9.7 | 0.20 | 1.52 | 1.52 | 95 | 983.6 |
| 20260504013031 | 3 | 31 | 6.4 | 17.7 | 0.25 | 1.50 | 1.50 | 95 | 984.9 |
| 20260504011514 | 2 | 80 | 8.0 | 17.7 | 0.33 | 1.45 | 1.45 | 95 | 986.2 |
| 20260504010010 | 3 | 94 | 11.3 | 25.7 | 0.30 | 1.40 | 1.40 | 95 | 987.3 |
| 20260504004508 | 2 | 26 | 11.3 | 22.5 | 0.28 | 1.32 | 1.32 | 95 | 988.1 |
| 20260504003005 | 2 | 82 | 9.7 | 25.7 | 0.38 | 1.24 | 1.24 | 95 | 988.6 |
| 20260504001501 | 2 | 106 | 4.8 | 16.1 | 0.43 | 1.17 | 1.17 | 95 | 990.1 |
| 20260504000138 | 2 | 238 | 8.0 | 22.5 | 0.43 | 1.09 | 1.09 | 95 | 990.2 |
| 20260503234557 | 2 | 130 | 6.4 | 25.7 | 0.41 | 1.04 | 1.04 | 94 | 991.0 |
| 20260503233053 | 2 | 105 | 9.7 | 22.5 | 0.23 | 0.86 | 0.86 | 94 | 992.3 |
| 20260503231550 | 2 | 105 | 16.1 | 27.4 | 0.20 | 0.76 | 0.76 | 94 | 993.3 |
| 20260503230050 | 2 | 141 | 12.9 | 20.9 | 0.15 | 0.69 | 0.69 | 94 | 994.1 |
| 20260503224544 | 2 | 90 | 11.3 | 22.5 | 0.18 | 0.64 | 0.64 | 94 | 995.0 |
| 20260503223042 | 2 | 94 | 11.3 | 19.3 | 0.23 | 0.61 | 0.61 | 94 | 995.6 |
| 20260503221541 | 2 | 91 | 11.3 | 19.3 | 0.25 | 0.56 | 0.56 | 94 | 996.2 |
| 20260503220039 | 2 | 90 | 4.8 | 17.7 | 0.28 | 0.51 | 0.51 | 94 | 996.6 |
| 20260503214538 | 2 | 101 | 8.0 | 17.7 | 0.23 | 0.46 | 0.46 | 94 | 996.9 |
| 20260503213138 | 2 | 66 | 4.8 | 19.3 | 0.15 | 0.38 | 0.38 | 94 | 996.4 |
| 20260503211534 | 1 | 92 | 11.3 | 24.1 | 0.08 | 0.30 | 0.30 | 94 | 997.8 |
| 20260503210031 | 1 | 99 | 11.3 | 24.1 | 0.05 | 0.23 | 0.23 | 93 | 998.8 |
| 20260503204528 | 1 | 54 | 9.7 | 24.1 | 0.03 | 0.23 | 0.23 | 93 | 998.9 |
| 20260503203032 | 1 | 66 | 8.0 | 25.7 | 0.05 | 0.23 | 0.23 | 93 | 999.9 |
| 20260503201524 | 1 | 47 | 9.7 | 25.7 | 0.05 | 0.23 | 0.23 | 93 | 1000.3 |
| 20260503200024 | 1 | 74 | 14.5 | 25.7 | 0.10 | 0.20 | 0.20 | 93 | 1001.2 |
| 20260503194519 | 1 | 146 | 4.8 | 19.3 | 0.13 | 0.18 | 0.18 | 92 | 1001.2 |
| 20260503193018 | 2 | 74 | 14.5 | 20.9 | 0.10 | 0.15 | 0.15 | 92 | 1003.0 |
| 20260503191514 | 2 | 309 | 4.8 | 12.9 | 0.10 | 0.15 | 0.15 | 92 | 1003.2 |
| 20260503190013 | 2 | 110 | 1.6 | 16.1 | 0.05 | 0.10 | 0.10 | 91 | 1004.5 |
| 20260503184517 | 2 | 182 | 3.2 | 9.7 | 0.00 | 0.05 | 0.05 | 91 | 1005.2 |
| 20260503183008 | 2 | 96 | 3.2 | 12.9 | 0.00 | 0.05 | 0.05 | 91 | 1006.3 |
| 20260503181606 | 3 | 92 | 8.0 | 14.5 | 0.00 | 0.05 | 0.05 | 91 | 1006.5 |
| 20260503180003 | 3 | 80 | 4.8 | 11.3 | 0.00 | 0.05 | 0.05 | 91 | 1007.3 |
| 20260503174503 | 3 | 51 | 4.8 | 11.3 | 0.00 | 0.05 | 0.05 | 90 | 1007.4 |
| 20260503173101 | 3 | 93 | 3.2 | 6.4 | 0.00 | 0.05 | 0.05 | 90 | 1008.0 |
| 20260503171613 | 4 | 88 | 4.8 | 9.7 | 0.00 | 0.05 | 0.05 | 89 | 1008.3 |
| 20260503170106 | 4 | 74 | 3.2 | 6.4 | 0.05 | 0.05 | 0.05 | 89 | 1008.3 |
| 20260503081546 | 0 | 196 | 0.0 | 0.0 | 0.00 | 0.03 | 0.00 | 94 | 1015.4 |
| 20260503071600 | 0 | 196 | 0.0 | 0.0 | 0.00 | 0.05 | 0.00 | 94 | 1015.4 |